EW0673 Weather Reports


time (UTC)temp
C
wind
direction
speed
KPH
gust
KPH
rain 1hr
cm
rain 24hr
cm
rain mn
cm
humidity
%
barometer
mb
20260506233318 23 22 8.0 16.1 0.00 0.00 0.00 33 1014.9
20260506233054 23 325 6.4 17.7 0.00 0.00 0.00 33 1014.0
20260506232337 23 69 12.9 17.7 0.00 0.00 0.00 33 1014.9
20260506231544 23 49 11.3 17.7 0.00 0.00 0.00 32 1014.0
20260506231354 23 24 4.8 17.7 0.00 0.00 0.00 33 1014.9
20260506230338 23 280 6.4 14.5 0.00 0.00 0.00 34 1014.9
20260506230019 23 51 1.6 17.7 0.00 0.00 0.00 33 1014.0
20260506225352 23 91 8.0 17.7 0.00 0.10 0.00 33 1015.0
20260506224534 23 91 3.2 17.7 0.00 0.10 0.00 33 1014.1
20260506224341 23 43 3.2 17.7 0.00 0.10 0.00 33 1015.0
20260506223336 23 63 9.7 19.3 0.00 0.10 0.00 34 1015.0
20260506223018 23 32 9.7 17.7 0.00 0.10 0.00 33 1014.2
20260506222333 23 52 9.7 14.5 0.00 0.10 0.00 33 1015.4
20260506221557 23 55 8.0 17.7 0.00 0.10 0.00 34 1014.5
20260506221344 23 61 6.4 20.9 0.00 0.10 0.00 34 1015.5
20260506220338 23 41 14.5 19.3 0.00 0.10 0.00 33 1015.5
20260506220037 23 58 6.4 12.9 0.00 0.10 0.00 33 1014.7
20260506215337 23 330 4.8 16.1 0.00 0.13 0.00 35 1015.6
20260506214510 22 75 4.8 19.3 0.00 0.13 0.00 36 1014.8
20260506214359 22 31 4.8 19.3 0.00 0.13 0.00 36 1015.6
20260506213317 23 82 8.0 16.1 0.00 0.13 0.00 35 1015.6
20260506213033 22 40 6.4 12.9 0.00 0.13 0.00 35 1014.9
20260506212329 22 348 4.8 17.7 0.00 0.13 0.00 37 1015.7
20260506211512 22 360 1.6 16.1 0.00 0.13 0.00 37 1015.0
20260506211341 22 275 4.8 16.1 0.00 0.13 0.00 36 1015.7
20260506210325 22 141 8.0 19.3 0.00 0.13 0.00 39 1015.7
20260506210003 22 22 4.8 17.7 0.00 0.13 0.00 38 1015.0
20260506205354 22 60 4.8 11.3 0.00 0.13 0.00 39 1016.0
20260506204515 21 347 4.8 11.3 0.00 0.13 0.00 39 1015.3
20260506204333 21 61 4.8 11.3 0.00 0.13 0.00 38 1016.1
20260506203329 20 188 4.8 11.3 0.00 0.13 0.00 43 1016.1
20260506203022 20 135 4.8 11.3 0.00 0.13 0.00 42 1015.4
20260506202337 20 180 4.8 12.9 0.00 0.13 0.00 43 1016.2
20260506201547 20 148 1.6 12.9 0.00 0.13 0.00 43 1015.5
20260506201336 20 138 6.4 12.9 0.00 0.13 0.00 43 1016.5
20260506200403 21 86 6.4 16.1 0.00 0.13 0.00 43 1016.5
20260506200021 20 150 3.2 14.5 0.00 0.13 0.00 43 1015.9
20260506195327 20 73 4.8 14.5 0.00 0.13 0.00 44 1016.6
20260506194614 19 128 0.0 14.5 0.00 0.13 0.00 46 1016.0
20260506194332 19 55 3.2 14.5 0.00 0.13 0.00 46 1016.6
20260506193342 19 190 3.2 14.5 0.00 0.13 0.00 47 1016.6
20260506193056 19 151 4.8 16.1 0.00 0.13 0.00 46 1016.1
20260506192351 20 75 4.8 12.9 0.00 0.13 0.00 47 1017.0
20260506191507 18 116 3.2 11.3 0.00 0.13 0.00 48 1016.5
20260506191317 19 153 1.6 11.3 0.00 0.13 0.00 46 1017.1
20260506190334 18 150 1.6 12.9 0.00 0.13 0.00 50 1017.1
20260506190041 18 69 6.4 12.9 0.00 0.13 0.00 48 1016.6
20260506185327 18 150 3.2 12.9 0.00 0.13 0.00 49 1017.2
20260506184507 18 178 1.6 6.4 0.00 0.13 0.00 52 1016.8
20260506184325 18 159 1.6 12.9 0.00 0.13 0.00 49 1017.5
20260506183333 17 166 4.8 8.0 0.00 0.13 0.00 51 1017.5
20260506183057 17 170 1.6 8.0 0.00 0.13 0.00 51 1017.1
20260506182346 18 132 6.4 9.7 0.00 0.13 0.00 51 1017.7
20260506181506 17 86 3.2 11.3 0.00 0.13 0.00 50 1017.3
20260506181335 18 95 4.8 11.3 0.00 0.13 0.00 50 1017.7
20260506180340 17 55 4.8 12.9 0.00 0.13 0.00 52 1017.7
20260506180039 16 28 1.6 12.9 0.00 0.13 0.00 53 1017.4
20260506175340 16 53 4.8 14.5 0.00 0.13 0.00 55 1017.9
20260506174602 16 22 6.4 14.5 0.00 0.13 0.00 56 1017.5
20260506174342 16 71 8.0 14.5 0.00 0.13 0.00 54 1017.8
20260506173330 16 240 4.8 14.5 0.00 0.13 0.00 52 1017.8
20260506173111 16 57 8.0 16.1 0.00 0.13 0.00 53 1017.5
20260506172333 15 132 1.6 16.1 0.00 0.13 0.00 58 1017.9
20260506171536 16 39 8.0 14.5 0.00 0.13 0.00 57 1017.6
20260506171335 16 28 11.3 16.1 0.00 0.13 0.00 61 1017.8
20260506170343 15 51 1.6 11.3 0.00 0.13 0.00 61 1017.8
20260506170100 15 84 1.6 11.3 0.00 0.13 0.00 61 1017.5
20260506165330 16 79 6.4 12.9 0.00 0.13 0.00 60 1017.8
20260506164523 15 59 4.8 14.5 0.00 0.13 0.00 61 1017.5
20260506164334 15 96 4.8 14.5 0.00 0.13 0.00 61 1017.8
20260506163336 15 78 6.4 16.1 0.00 0.13 0.00 62 1017.8
20260506163014 14 92 8.0 16.1 0.00 0.13 0.00 62 1017.5
20260506162345 15 109 4.8 14.5 0.00 0.13 0.00 62 1017.7
20260506161536 13 49 1.6 11.3 0.00 0.13 0.00 64 1017.5
20260506161334 14 136 4.8 11.3 0.00 0.13 0.00 64 1017.7
20260506160327 13 78 9.7 17.7 0.00 0.13 0.00 66 1017.7
20260506160010 13 85 4.8 14.5 0.00 0.13 0.00 69 1017.5
20260506155355 13 86 9.7 14.5 0.00 0.13 0.00 68 1017.7
20260506154530 13 86 6.4 16.1 0.00 0.13 0.00 69 1017.5
20260506154317 13 94 8.0 16.1 0.00 0.13 0.00 68 1017.7
20260506153334 13 90 9.7 14.5 0.00 0.13 0.00 68 1017.7
20260506153054 12 92 3.2 11.3 0.00 0.13 0.00 68 1017.5
20260506152330 12 128 3.2 11.3 0.00 0.13 0.00 69 1017.7
20260506151530 12 177 1.6 8.0 0.00 0.13 0.00 72 1017.5
20260506151332 12 120 3.2 6.4 0.00 0.13 0.00 74 1017.8
20260506150332 11 92 1.6 8.0 0.00 0.13 0.00 74 1017.8
20260506150024 11 82 3.2 9.7 0.00 0.15 0.00 75 1017.6
20260506145341 11 78 4.8 9.7 0.00 0.15 0.00 75 1017.8
20260506144546 10 92 4.8 9.7 0.00 0.15 0.00 77 1017.6
20260506144331 10 86 4.8 9.7 0.00 0.15 0.00 77 1017.7
20260506143334 10 101 3.2 9.7 0.00 0.15 0.00 78 1017.7
20260506143048 10 92 4.8 9.7 0.00 0.15 0.00 79 1017.6
20260506142329 10 101 4.8 9.7 0.00 0.15 0.00 80 1017.7
20260506141510 8 88 1.6 9.7 0.00 0.15 0.00 82 1017.5
20260506141341 8 94 3.2 9.7 0.00 0.15 0.00 83 1017.5
20260506140353 8 92 3.2 4.8 0.00 0.15 0.00 84 1017.5
20260506140033 7 97 0.0 4.8 0.00 0.15 0.00 85 1017.3
20260506135321 7 96 1.6 3.2 0.00 0.15 0.00 86 1017.3
20260506134544 7 94 0.0 0.0 0.00 0.15 0.00 86 1017.1
20260506134322 7 94 0.0 1.6 0.00 0.15 0.00 86 1017.2
20260506133331 7 96 0.0 4.8 0.00 0.15 0.00 84 1017.2
20260506133038 7 102 0.0 4.8 0.00 0.15 0.00 84 1017.0
20260506132328 8 128 1.6 6.4 0.00 0.15 0.00 84 1017.2
20260506131555 7 91 3.2 8.0 0.00 0.15 0.00 85 1017.0
20260506131324 8 128 4.8 8.0 0.00 0.15 0.00 85 1016.8
20260506130353 7 134 4.8 11.3 0.00 0.15 0.00 86 1016.8
20260506130033 7 94 6.4 11.3 0.00 0.15 0.00 86 1016.6
20260506125333 7 106 4.8 8.0 0.00 0.15 0.00 87 1016.7
20260506124527 7 91 1.6 8.0 0.00 0.15 0.00 87 1016.5
20260506124343 8 95 1.6 4.8 0.00 0.15 0.00 87 1016.6
20260506123406 8 123 1.6 4.8 0.00 0.15 0.00 86 1016.6
20260506123052 8 122 0.0 4.8 0.00 0.15 0.00 87 1016.5
20260506122326 8 125 1.6 6.4 0.00 0.15 0.00 87 1016.7
20260506121521 8 121 3.2 6.4 0.00 0.15 0.00 87 1016.5
20260506121325 8 96 3.2 4.8 0.00 0.15 0.00 87 1016.7
20260506120330 8 104 0.0 4.8 0.00 0.15 0.00 87 1016.7
20260506120016 8 104 0.0 4.8 0.00 0.15 0.00 87 1016.6
20260506115400 8 120 0.0 3.2 0.00 0.15 0.00 87 1016.8
20260506114542 8 120 0.0 3.2 0.00 0.15 0.00 87 1016.6
20260506114327 8 120 0.0 3.2 0.00 0.15 0.00 88 1016.7
20260506113357 8 142 1.6 3.2 0.00 0.15 0.00 87 1016.7
20260506113048 8 137 0.0 1.6 0.00 0.15 0.00 87 1016.6
20260506112323 8 137 0.0 3.2 0.00 0.15 0.00 86 1016.8
20260506111523 7 137 0.0 3.2 0.00 0.15 0.00 85 1016.6
20260506111326 8 130 0.0 3.2 0.00 0.15 0.00 86 1016.6
20260506110332 8 130 0.0 0.0 0.00 0.15 0.00 85 1016.6
20260506105338 8 130 0.0 4.8 0.00 0.18 0.00 85 1016.6
20260506104505 7 134 1.6 4.8 0.00 0.18 0.00 86 1016.4
20260506104341 7 121 1.6 4.8 0.00 0.18 0.00 86 1016.6
20260506103348 7 99 0.0 4.8 0.00 0.18 0.00 86 1016.6
20260506103046 7 98 0.0 3.2 0.00 0.18 0.00 86 1016.4
20260506102331 7 97 1.6 3.2 0.00 0.18 0.00 87 1016.5
20260506101532 7 94 0.0 4.8 0.00 0.18 0.00 86 1016.4
20260506101336 7 92 1.6 4.8 0.00 0.18 0.00 86 1016.5
20260506100331 7 92 1.6 4.8 0.00 0.18 0.00 87 1016.5
20260506100005 7 92 1.6 4.8 0.00 0.20 0.00 87 1016.3
20260506095331 7 76 1.6 3.2 0.00 0.20 0.00 87 1016.3
20260506094554 7 147 0.0 3.2 0.00 0.20 0.00 84 1016.1
20260506094341 7 148 0.0 3.2 0.00 0.20 0.00 85 1016.4
20260506093357 7 115 0.0 4.8 0.00 0.20 0.00 86 1016.4
20260506093027 6 127 1.6 4.8 0.00 0.20 0.00 87 1016.2
20260506092334 7 127 1.6 4.8 0.00 0.20 0.00 85 1016.4
20260506091524 7 105 0.0 3.2 0.00 0.20 0.00 84 1016.2
20260506091328 7 105 0.0 3.2 0.00 0.20 0.00 85 1016.4
20260506090329 6 97 0.0 1.6 0.00 0.20 0.00 87 1016.4
20260506090008 6 97 0.0 0.0 0.00 0.23 0.00 86 1016.2
20260506085328 6 97 0.0 0.0 0.00 0.23 0.00 87 1016.5
20260506084537 6 96 0.0 3.2 0.00 0.23 0.00 87 1016.4
20260506084333 6 96 0.0 3.2 0.00 0.23 0.00 87 1016.4
20260506083341 5 87 1.6 4.8 0.00 0.23 0.00 88 1016.4
20260506083003 5 94 1.6 4.8 0.00 0.23 0.00 87 1016.3
20260506082323 5 128 0.0 1.6 0.00 0.23 0.00 86 1016.2
20260506081537 5 128 0.0 3.2 0.00 0.23 0.00 86 1016.1
20260506081326 6 127 0.0 3.2 0.00 0.23 0.00 85 1016.2
20260506080331 7 159 1.6 4.8 0.00 0.23 0.00 83 1016.2
20260506073317 6 135 1.6 3.2 0.00 0.23 0.00 86 1016.1
20260506073044 6 135 1.6 4.8 0.00 0.23 0.00 85 1015.9
20260506072318 7 121 3.2 6.4 0.00 0.23 0.00 83 1016.1
20260506071515 7 138 1.6 6.4 0.00 0.23 0.00 84 1015.8
20260506071320 7 141 3.2 6.4 0.00 0.23 0.00 84 1015.9
20260506070327 7 121 1.6 4.8 0.00 0.23 0.00 84 1015.9
20260506062337 8 155 0.0 6.4 0.00 0.23 0.23 82 1015.4
20260506061505 8 169 3.2 6.4 0.00 0.23 0.23 82 1015.2
20260506061339 8 168 4.8 6.4 0.00 0.23 0.23 82 1015.4
20260506060356 8 161 4.8 6.4 0.00 0.23 0.23 82 1015.4
20260506051315 9 161 0.0 3.2 0.00 0.23 0.23 82 1015.0
20260506050325 10 162 0.0 4.8 0.00 0.23 0.23 80 1015.0
20260506044523 11 137 0.0 1.6 0.00 0.23 0.23 77 1014.6
20260506044337 11 133 0.0 1.6 0.00 0.23 0.23 78 1014.8
20260506043320 11 133 0.0 1.6 0.00 0.23 0.23 76 1014.8
20260506043008 11 133 0.0 1.6 0.00 0.23 0.23 75 1014.5
20260506042332 11 119 0.0 3.2 0.00 0.23 0.23 75 1014.5
20260506041530 12 115 0.0 1.6 0.00 0.23 0.23 74 1014.2
20260506041314 12 115 0.0 1.6 0.00 0.23 0.23 73 1014.4
20260506040338 12 113 1.6 3.2 0.00 0.23 0.23 71 1014.4
20260506040027 12 105 0.0 4.8 0.00 0.23 0.23 71 1014.1
20260506035338 12 96 1.6 4.8 0.00 0.23 0.23 72 1014.2
20260506034523 12 93 1.6 4.8 0.00 0.23 0.23 73 1013.8
20260506034339 12 105 1.6 4.8 0.00 0.23 0.23 72 1013.9
20260506033339 12 98 0.0 3.2 0.00 0.23 0.23 69 1013.9
20260506033054 12 113 0.0 3.2 0.00 0.23 0.23 69 1013.5
20260506032323 12 105 0.0 3.2 0.00 0.23 0.23 69 1013.7
20260506031532 12 101 0.0 4.8 0.00 0.23 0.23 69 1013.3
20260506031323 12 103 1.6 4.8 0.00 0.23 0.23 69 1013.3
20260506030356 13 80 1.6 3.2 0.00 0.23 0.23 70 1013.3
20260506030039 12 80 0.0 3.2 0.00 0.23 0.23 71 1013.0
20260506025321 13 76 0.0 3.2 0.00 0.23 0.23 70 1013.3
20260506024523 13 78 0.0 4.8 0.00 0.23 0.23 71 1012.9
20260506024341 13 74 1.6 4.8 0.00 0.23 0.23 69 1013.2
20260506023345 13 49 1.6 6.4 0.00 0.23 0.23 67 1013.2
20260506023100 13 50 1.6 6.4 0.00 0.23 0.23 69 1012.8
20260506022401 13 38 4.8 8.0 0.00 0.23 0.23 69 1013.2
20260506021511 13 94 1.6 8.0 0.00 0.23 0.23 66 1012.8
20260506021331 13 163 0.0 3.2 0.00 0.23 0.23 65 1013.0
20260506020339 13 167 4.8 8.0 0.00 0.23 0.23 64 1013.0
20260506020035 13 157 0.0 3.2 0.00 0.23 0.23 65 1012.5
20260506015316 13 155 0.0 4.8 0.00 0.23 0.23 67 1013.0
20260506014517 13 164 1.6 4.8 0.00 0.23 0.23 66 1012.5
20260506014333 13 164 1.6 4.8 0.00 0.23 0.23 66 1012.7
20260506013328 13 164 3.2 6.4 0.00 0.23 0.23 66 1012.7
20260506013055 13 166 3.2 6.4 0.00 0.23 0.23 66 1012.3
20260506012328 13 168 3.2 4.8 0.00 0.23 0.23 67 1012.7
20260506011523 13 169 1.6 3.2 0.00 0.23 0.23 67 1012.3
20260506011329 13 117 0.0 3.2 0.00 0.23 0.23 66 1012.7
20260506010333 13 164 0.0 4.8 0.00 0.23 0.23 65 1012.7
20260506010010 13 164 0.0 4.8 0.00 0.23 0.23 66 1012.2
20260506005328 13 118 1.6 3.2 0.00 0.23 0.23 62 1012.7
20260506004542 13 348 0.0 4.8 0.00 0.23 0.23 62 1012.2
20260506004328 13 348 0.0 4.8 0.00 0.23 0.23 63 1012.7
20260506003338 13 135 3.2 6.4 0.00 0.23 0.23 61 1012.7
20260506003042 13 77 0.0 8.0 0.00 0.23 0.23 64 1012.3
20260506002314 14 76 1.6 8.0 0.00 0.23 0.23 64 1012.7
20260506001608 13 65 0.0 1.6 0.00 0.23 0.23 65 1012.2
20260506001333 13 329 0.0 3.2 0.00 0.23 0.23 69 1012.7
20260506000332 13 331 0.0 4.8 0.00 0.23 0.23 65 1012.7
20260506000049 13 331 0.0 4.8 0.00 0.23 0.23 64 1012.3
20260505235327 13 266 0.0 8.0 0.00 0.23 0.23 65 1012.7
20260505234519 13 283 0.0 3.2 0.00 0.23 0.23 66 1012.2
20260505234336 13 30 0.0 1.6 0.00 0.23 0.23 65 1012.7